STARLINK-5887 (56349 NORAD) Tracking and Keplerian Element Data

This shows tracking and keplerian element data for the satellite.

Feedback or suggestion? Click here.




ElementValue
Catalog56349
NameSTARLINK-5887
Epoch Orbit181
Epoch Day127.00001157
Epoch Year2023
RAAN126.4753
Inclination97.664
Eccentricity0.0001444
Argument of Perigee93.9742
Mean Anonmoly238.6007
Mean Motion15.68259046
Decay Rate-0.00868032
L11 56349U 23058AJ 23127.00001157 -.00868032 00000+0 -86286-2 0 9994
L22 56349 97.6640 126.4753 0001444 93.9742 238.6007 15.68259046 1818



Live tracking and technical data element details for STARLINK-5887 (NORAD 56349). STARLINK-5887 can be tracked NOW for your location showing map with azimuth and elevation plus other details from your city location.







IsCatalogInMostPopularTable: catalog: 56349, numindb: 2
Update: records affected: 1



GetName: 56349 STARLINK-5887

Hit Count: updated at: Mon, 05 Jun 2023 01:10:40 GMT